Regional Weather Roundup
Issued by NWS Sterling, VA

Home | Current Version | Previous Version | Graphics & Text | Print | Product List | Glossary On
Versions: 1 2 3 4 5 6 7 8 9 10 11 12 13 14 15 16 17 18 19 20 21 22 23 24 25 26 27 28 29 30 31 32 33 34 35 36 37 38 39 40 41 42 43 44 45 46 47 48 49 50
000
ASUS41 KLWX 031910
RWRLWX

REGIONAL WEATHER ROUNDUP
NATIONAL WEATHER SERVICE BALTIMORE MD/WASHINGTON DC
300 PM EDT THU SEP 03 2015

Note: "FAIR" indicates few or no clouds below 12,000 feet
with no significant weather and/or obstructions to visibility.
 TC=TEMPERATURE CELSIUS

 * =Non NWS site. Station does not report precipitation (e.g. rain,
    snow, etc.), thunder, or fog.

DCZ001-MDZ009-015-VAZ040>042-051-053>054-032000-
WASHINGTON METRO

CITY           SKY/WX    TMP DP  RH WIND       PRES   REMARKS
WASHINGTON NAT MOSUNNY   94  68  42 N10       29.87F HX  98
DULLES         MOSUNNY   91  65  41 CALM      29.89F HX  93
ANDREWS AFB    MOSUNNY   91  68  46 SW7       29.87F THUNDER HX  95
FT BELVOIR     SUNNY     93  66  40 VRB6      29.87F HX  96
QUANTICO       MOSUNNY   90  74  59 S8        29.88F HX  99
COLLEGE PARK*  MOSUNNY   91  64  40 N3        29.86F HX  93
LEESBURG*      SUNNY     91  68  46 N8        29.90F HX  95
MANASSAS*      MOSUNNY   91  66  43 NW9       29.89F HX  94
GAITHERSBURG*  MOSUNNY   91  66  43 NW6       29.92F HX  94

$$

MDZ006>007-011-014-032000-
BALTIMORE METRO

CITY           SKY/WX    TMP DP  RH WIND       PRES   REMARKS
BWI AIRPORT    MOSUNNY   93  66  40 NW6       29.86F HX  96
MD SCIENCE CTR   N/A     92  66  42 MISG      29.86F HX  94
MARTIN STATE   MOSUNNY   90  75  62 SE7       29.88F HX 100
ANNAPOLIS      SUNNY     85  74  69 SE10      29.87F HX  92
FORT MEADE*    SUNNY     90  66  45 CALM      29.89F HX  92

$$

MDZ012-015-019>023-032000-
MARYLAND EASTERN SHORE

CITY           SKY/WX    TMP DP  RH WIND       PRES   REMARKS
OCEAN CITY     SUNNY     84  70  62 MISG      29.87F
SALISBURY      MOSUNNY   91  67  44 VRB3      29.86F HX  94
BAY BRIDGE AP*   N/A     88  64  45 W3        29.87F
CAMBRIDGE*     SUNNY     91  66  43 W6        29.87S HX  94
EASTON*        MOSUNNY   91  68  46 NW7       29.91F HX  95

$$

MDZ017>025-032000-
SOUTHERN MARYLAND

CITY           SKY/WX    TMP DP  RH WIND       PRES   REMARKS
PATUXENT RIVER MOSUNNY   88  68  51 SE7       29.87F HX  91
ST INIGOES     SUNNY     89  72  56 VRB5      29.87F HX  96
LEONARDTOWN*   NOT AVBL

$$

MDZ003>005-032000-
NORTH CENTRAL MARYLAND

CITY           SKY/WX    TMP DP  RH WIND       PRES   REMARKS
FREDERICK*     SUNNY     91  66  43 N5        29.92F HX  94
HAGERSTOWN APT MOSUNNY   92  63  38 NW7       29.90F HX  93
WESTMINSTER*   MOSUNNY   90  64  43 NW6       29.91F HX  91

$$

MDZ501>502-032000-
WESTERN MARYLAND

CITY           SKY/WX    TMP DP  RH WIND       PRES   REMARKS
OAKLAND*       HAZE      68  61  77 NW3       30.07F VSB 3/4
CUMBERLAND*    MOSUNNY   86  70  58 W12       29.96F HX  90

$$

VAZ025>031-032000-
SHENANDOAH VALLEY

CITY           SKY/WX    TMP DP  RH WIND       PRES   REMARKS
WINCHESTER*    MOSUNNY   91  61  35 N3        29.92S HX  91
FRONT ROYAL*   FAIR      84  70  61 S8        29.92S
LURAY*         FAIR      81  72  74 CALM      29.94F
NEW MARKET*    FAIR      85  69  56 CALM      29.92S
STAUNTON*      MOSUNNY   91  64  40 NW17G24   29.98S HX  91
WAYNESBORO*    MOCLDY    90  62  38 CALM      29.97F HX  90

$$

WVZ021-048>050-054>055-032000-
EASTERN WEST VIRGINIA PANHANDLE

CITY           SKY/WX    TMP DP  RH WIND       PRES   REMARKS
MARTINSBURG    MOSUNNY   93  63  36 N6        29.91F HX  94
PETERSBURG*    HVY RAIN  74  65  73 SE8G26    29.96F

$$

VAZ036>039-050-032000-
CENTRAL FOOTHILLS

CITY           SKY/WX    TMP DP  RH WIND       PRES   REMARKS
CHARLOTTESVILL MOSUNNY   87  70  56 S6        29.92F HX  92
CULPEPER*      MOSUNNY   89  69  50 N6        29.90F HX  93
ORANGE*        PTSUNNY   91  64  40 SW3       29.91F HX  93
GORDONSVILLE*  FAIR      90  69  50 NW5       29.90F HX  94
WARRENTON*     FAIR      93  68  44 NW8       29.89F HX  97

$$

VAZ055>057-032000-
NORTH AND CENTRAL PIEDMONT

CITY           SKY/WX    TMP DP  RH WIND       PRES   REMARKS
FREDERICKSBRG* SUNNY     91  67  44 W3        29.87F HX  93
STAFFORD*      MOSUNNY   92  63  38 N7        29.93F HX  92

$$

NCZ024-NYZ072-PAZ021-071-VAZ022-071-032000-
OTHER REGIONAL OBSERVATIONS

CITY           SKY/WX    TMP DP  RH WIND       PRES   REMARKS
NEW YORK CITY  SUNNY     92  61  35 VRB6      29.87F HX  92
PHILADELPHIA   MOSUNNY   94  61  33 N12G17    29.85S HX  94
PITTSBURGH     PTSUNNY   88  65  46 W9        29.95F HX  90
ROANOKE        MOSUNNY   91  60  35 N7        29.98F HX  90
RICHMOND       MOSUNNY   92  67  43 CALM      29.89F HX  95
RALEIGH        PTSUNNY   88  65  46 CALM      29.93F HX  90

$$

ANZ530>537-032000-
MARINE OBSERVATIONS

STATION/POSITION TIME  TEMP    WIND        PRES
                       AIR SEA DIR/SP/G
                 (UTC) (F)     (DEG/KT/KT) (MB)
THOMAS PT LIGHT  NOT AVBL
BALT KEY BRIDGE  1800   85     120/  5/  6 1011.7F
COVE POINT       1800   81      60/  4/  5 1012.9F
LEWISETTA        1800   83 82   90/  4/  4 1011.8F
SOLOMONS ISLAND  1800      81                N/A
PINEY POINT      1805          230/  2/  2   N/A

$$




USA.gov is the U.S. government's official web portal to all federal, state and local government web resources and services.